User: anonymous   Login
Location: Carri�res
(48.9069°N, 2.1792°E)
Time: 18:06:15
(UTC+00:00)
Language:

Cosmos 1455 - Orbit

View from above orbital plane
View from above orbital plane
View from above satellite
View from above satellite

Ground track
Ground track

The orbit data is extracted from the following two-line orbital elements,

1 14032U 83037A   21104.51390374  .00000833  00000-0  38339-4 0  9995
2 14032  82.5144 145.6697 0018546  98.9024 261.4311 15.18740169 73112
Epoch (UTC): 14 April 2021 12:20:01
Eccentricity: 0.0018546
inclination: 82.5144°
perigee height: 497 km
apogee height: 522 km
right ascension of ascending node: 145.6697°
argument of perigee: 98.9024°
revolutions per day: 15.18740169
mean anomaly at epoch: 261.4311°
orbit number at epoch: 7311

The dashed part of the orbit path shows where the satellite is in the earth's shadow,  

DLR